[[[{"header":{"parameterUnit":"kt","parameterCategory":2,"dx":1,"dy":1,"la1":30.253999710083008,"la2":30.299108505249023,"lo1":-89.0895004272461,"lo2":-89.04439544677734,"nx":28,"ny":28,"refTime":"2022-09-24T21:00:00:Z","depth":0,"parameterNumber":1,"parameterNumberName":"U-component_of_WINDS"},"data":[2.92,2.9199,2.9198,2.9196,2.9195,2.9193,2.9192,2.9191,2.9189,2.9186,2.9184,2.9183,2.9181,2.9178,2.9175,2.9174,2.9173,2.9172,2.9171,2.9175,2.9176,2.9176,2.9177,2.9172,2.9172,2.9167,2.9167,2.9167,2.9201,2.9201,2.92,2.9198,2.9197,2.9197,2.9196,2.9195,2.9193,2.9191,2.919,2.9187,2.9184,2.9182,2.9179,2.9177,2.9177,2.9177,2.9177,2.9176,2.918,2.9181,2.9177,2.9177,2.9177,2.9177,2.9177,2.9177,2.9203,2.9202,2.9202,2.9201,2.92,2.9199,2.9198,2.9197,2.9196,2.9194,2.9193,2.9191,2.9189,2.9186,2.9184,2.9182,2.9182,2.9181,2.9181,2.9181,2.918,2.9186,2.9181,2.9181,2.9181,2.9181,2.9181,0,2.9204,2.9204,2.9204,2.9203,2.9202,2.9201,2.92,2.92,2.9199,2.9198,2.9196,2.9195,2.9192,2.919,2.9187,2.9186,2.9186,2.9186,2.9185,2.9185,2.9185,2.9184,2.9191,2.9186,2.9186,2.9186,2.9186,2.9186,2.9205,2.9205,2.9205,2.9204,2.9204,2.9203,2.9203,2.9203,2.9202,2.92,2.9199,2.9198,2.9196,2.9193,2.9191,2.9189,2.9189,2.9187,2.9189,2.9188,2.9188,2.9188,2.9187,2.9187,2.9187,2.9187,2.9187,0,2.9206,2.9206,2.9206,2.9206,2.9205,2.9205,2.9204,2.9203,2.9203,2.9202,2.9201,2.9201,2.9199,2.9198,2.9196,2.9195,2.9192,2.9192,2.9192,2.9192,2.919,2.919,2.9184,2.9183,2.9189,2.9189,2.9189,0,2.9207,2.9207,2.9207,2.9207,2.9206,2.9206,2.9205,2.9205,2.9204,2.9203,2.9204,2.9202,2.9202,2.92,2.92,2.9197,2.9197,2.9196,2.9196,2.9196,2.9196,2.9195,2.9195,2.9197,2.9197,2.9197,2.9197,0,2.9208,2.9208,2.9208,2.9208,2.9208,2.9207,2.9207,2.9207,2.9206,2.9206,2.9205,2.9204,2.9203,2.9202,2.9201,2.9202,2.9198,2.92,2.9198,2.9198,2.9197,2.9197,2.9192,2.9197,2.9197,2.9197,2.9197,0,2.9209,2.9209,2.9209,2.9209,2.9209,2.9208,2.9208,2.9208,2.9207,2.9207,2.9207,2.9207,2.9205,2.9206,2.9204,2.9205,2.9204,2.9204,2.9203,2.9203,2.9204,2.9201,2.9197,2.9196,2.9202,2.9203,2.9203,0,2.9209,2.9209,2.921,2.921,2.921,2.921,2.921,2.921,2.921,2.9209,2.9209,2.9209,2.921,2.9209,2.9208,2.9208,2.9206,2.9208,2.9206,2.9206,2.9205,2.9202,2.9202,2.9198,2.9203,2.9203,2.9203,0,2.9209,2.921,2.921,2.921,2.9211,2.9212,2.9211,2.9212,2.9211,2.9211,2.9211,2.921,2.9211,2.9211,2.9211,2.921,2.9207,2.921,2.921,2.9209,2.9204,2.9203,2.9203,2.9207,2.9207,2.9207,2.9204,0,2.9209,2.921,2.921,2.9211,2.9212,2.9212,2.9213,2.9213,2.9214,2.9214,2.9213,2.9214,2.9213,2.9213,2.9214,2.9212,2.9212,2.9213,2.9214,2.9212,2.921,2.921,2.9215,2.9215,2.9215,2.9216,0,0,2.9209,2.921,2.9212,2.9212,2.9213,2.9214,2.9214,2.9215,2.9216,2.9216,2.9216,2.9216,2.9217,2.9216,2.9215,2.9215,2.9215,2.9216,2.9213,2.9213,2.9212,2.9211,2.921,2.9216,2.9216,2.9216,2.9216,0,2.9209,2.9211,2.9212,2.9212,2.9214,2.9214,2.9215,2.9216,2.9216,2.9217,2.9217,2.9217,2.9218,2.9217,2.9217,2.9216,2.9216,2.9216,2.9215,2.9213,2.9213,2.9212,2.9211,2.9211,2.9216,2.9216,2.9216,0,2.9209,2.9211,2.9211,2.9214,2.9215,2.9215,2.9216,2.9217,2.9217,2.9219,2.9219,2.9219,2.9219,2.9219,2.9219,2.9219,2.9217,2.9219,2.9218,2.9218,2.9217,2.9217,2.9216,2.9221,2.9221,2.9221,0,0,2.9209,2.9211,2.9213,2.9214,2.9214,2.9216,2.9217,2.9217,2.9218,2.9219,2.9219,2.922,2.922,2.922,2.922,2.922,2.9219,2.9219,2.9219,2.9219,2.9219,2.9217,2.9217,2.9221,2.9221,2.9221,0,0,2.9209,2.9212,2.9213,2.9214,2.9215,2.9217,2.9218,2.9218,2.9219,2.9219,2.922,2.9221,2.922,2.9221,2.9221,2.922,2.9221,2.9221,2.922,2.922,2.922,2.9219,2.9223,0,0,0,0,0,2.9211,2.9212,2.9212,2.9213,2.9216,2.9217,2.9217,2.9219,2.9219,2.9219,2.922,2.9221,2.9221,2.9222,2.9222,2.9221,2.9222,2.9222,2.9221,2.922,2.922,2.9219,0,0,0,0,0,0,2.9211,2.9212,2.9212,2.9214,2.9215,2.9217,2.9218,2.9218,2.9219,2.9219,2.9221,2.9221,2.9222,2.9222,2.9222,2.9221,2.9223,2.9222,2.9221,2.9221,2.922,2.922,2.9219,0,0,0,0,0,2.9211,2.9212,2.9216,2.9214,2.9215,2.9217,2.9218,2.9218,2.9219,2.922,2.9221,2.922,2.9222,2.9222,2.9222,2.9221,2.9222,2.9223,2.9222,2.9221,2.9221,2.922,0,0,0,0,0,0,2.9211,2.9212,2.9216,2.9217,2.9214,2.9217,2.9217,2.9218,2.922,2.922,2.922,2.922,2.9221,2.9222,2.9222,2.9221,2.9222,2.9222,2.9222,2.9221,2.9221,2.9221,0,0,0,0,0,0,2.9211,2.9212,2.9217,2.9217,2.9217,2.9216,2.9217,2.9217,2.922,2.9219,2.9219,2.922,2.9221,2.9222,2.9222,2.9222,2.9222,2.9222,2.9222,2.9222,2.9221,2.9221,0,0,0,0,0,0,2.9212,2.9212,2.9216,2.9217,2.9217,2.9219,2.9217,2.922,2.922,2.9219,2.922,2.922,2.9221,2.9221,2.9222,2.9222,2.9222,2.9222,2.9222,2.9222,2.9222,0,0,0,0,0,0,0,2.9212,2.9209,2.9215,2.9217,2.9217,2.9218,2.9218,2.9219,2.922,2.922,2.922,2.922,2.9222,2.9222,2.9222,2.9222,0,0,2.9222,2.9222,0,0,0,0,0,0,0,0,2.9209,2.9209,2.9215,2.9215,2.9215,2.9218,2.9218,2.9219,2.922,2.922,2.922,2.922,2.9222,2.9222,2.9222,0,0,0,0,0,0,0,0,0,0,0,0,0,0,0,2.9215,2.9215,0,2.9218,2.9218,2.9219,2.922,2.922,2.922,2.922,2.9222,2.9222,2.9222,0,0,0,0,0,0,0,0,0,0,0,0,0,0,0,0,0,0,0,0,0,0,0,0,0,0,0,0,0,0,0,0,0,0,0,0,0,0,0,0,0,0,0,0,0,0,0,0,0,0,0,0,0,0,0,0,0,0,0,0,0,0,0,0,0,0,0,0,0]}],[{"header":{"parameterUnit":"kt","parameterCategory":2,"dx":1,"dy":1,"la1":30.253999710083008,"la2":30.299108505249023,"lo1":-89.0895004272461,"lo2":-89.04439544677734,"nx":28,"ny":28,"refTime":"2022-09-24T21:00:00:Z","depth":0,"parameterNumber":2,"parameterNumberName":"V-component_of_WINDS"},"data":[0.1026,0.1009,0.1011,0.0992,0.0991,0.0978,0.0974,0.0969,0.0965,0.095,0.0941,0.0941,0.0938,0.0927,0.0917,0.0917,0.0912,0.0905,0.0906,0.094,0.0945,0.0949,0.0953,0.0904,0.0904,0.0869,0.0869,0.0869,0.1047,0.1046,0.1037,0.103,0.1022,0.103,0.1025,0.1017,0.1006,0.1002,0.0994,0.098,0.097,0.097,0.096,0.0951,0.0954,0.0948,0.0948,0.0947,0.0984,0.0988,0.0946,0.0946,0.0946,0.0946,0.0946,0.0946,0.1087,0.1078,0.1075,0.1065,0.1062,0.1057,0.1048,0.1049,0.104,0.1031,0.1035,0.1022,0.1018,0.1008,0.1005,0.0995,0.1001,0.0995,0.0994,0.0991,0.0988,0.1034,0.0993,0.0994,0.0994,0.0994,0.0994,0,0.1117,0.1119,0.1111,0.1104,0.1097,0.1092,0.1087,0.1082,0.1088,0.1081,0.107,0.1064,0.1053,0.1042,0.1034,0.1033,0.104,0.1042,0.1037,0.1033,0.1031,0.103,0.1088,0.1043,0.1043,0.1043,0.1044,0.1044,0.1155,0.1145,0.1143,0.1138,0.1136,0.1127,0.1122,0.1128,0.1122,0.1118,0.1109,0.1099,0.1092,0.1075,0.1076,0.1067,0.107,0.1052,0.1069,0.1066,0.1067,0.1067,0.1065,0.1048,0.1048,0.1047,0.1047,0,0.1176,0.118,0.1165,0.1165,0.1165,0.1153,0.1153,0.1144,0.1146,0.1134,0.1131,0.1135,0.1124,0.1128,0.1118,0.112,0.1098,0.1103,0.1099,0.1099,0.1082,0.1083,0.103,0.1023,0.1075,0.1075,0.1075,0,0.121,0.1196,0.1203,0.1194,0.1179,0.1186,0.1171,0.1171,0.1169,0.1159,0.1169,0.116,0.1167,0.1158,0.1162,0.1145,0.1144,0.1144,0.1145,0.1142,0.1142,0.1138,0.114,0.115,0.115,0.1151,0.1151,0,0.1241,0.123,0.1216,0.1214,0.1213,0.1206,0.1205,0.1204,0.1199,0.1194,0.119,0.1184,0.118,0.1174,0.1179,0.1189,0.1159,0.1175,0.1159,0.1159,0.1151,0.1151,0.1105,0.1151,0.1151,0.1151,0.1151,0,0.1269,0.1264,0.1244,0.1243,0.124,0.1231,0.1225,0.1218,0.1216,0.1217,0.1213,0.122,0.1208,0.1223,0.1206,0.1218,0.1213,0.1213,0.1212,0.121,0.1226,0.1197,0.1154,0.1148,0.1209,0.1209,0.121,0,0.1302,0.1283,0.129,0.127,0.1262,0.1273,0.1263,0.1262,0.1263,0.1256,0.1258,0.125,0.1263,0.1261,0.1252,0.1253,0.1237,0.1256,0.1243,0.1242,0.1241,0.1202,0.1194,0.1163,0.1216,0.1215,0.1215,0,0.1328,0.1329,0.1325,0.1323,0.1322,0.1316,0.1305,0.1299,0.1294,0.1292,0.1282,0.1272,0.128,0.1278,0.1283,0.1273,0.1248,0.1284,0.1284,0.1275,0.1221,0.1212,0.1207,0.1254,0.1253,0.1252,0.122,0,0.1365,0.1357,0.1348,0.1345,0.1341,0.1331,0.1336,0.1331,0.1337,0.1339,0.1326,0.1327,0.1321,0.1318,0.1323,0.1301,0.1305,0.1314,0.1328,0.1303,0.1293,0.1289,0.1344,0.1344,0.1344,0.1345,0,0,0.1395,0.1384,0.1393,0.1383,0.138,0.1393,0.138,0.1379,0.1377,0.1374,0.1383,0.1369,0.1369,0.1352,0.1345,0.1344,0.1339,0.1348,0.1316,0.1312,0.1309,0.1298,0.1294,0.1345,0.1346,0.1346,0.1346,0,0.1409,0.1411,0.1399,0.1399,0.1398,0.1402,0.1399,0.1401,0.1402,0.139,0.14,0.1393,0.1383,0.1381,0.1379,0.1351,0.1358,0.1349,0.1331,0.1319,0.1316,0.1312,0.13,0.1296,0.1347,0.1347,0.1347,0,0.1435,0.1437,0.1432,0.1428,0.1428,0.1421,0.1437,0.1429,0.1423,0.1437,0.1425,0.1427,0.1426,0.141,0.1403,0.141,0.1375,0.1389,0.1386,0.1385,0.1375,0.137,0.1366,0.1419,0.1419,0.1419,0,0,0.1447,0.1441,0.1445,0.1432,0.1431,0.1437,0.1434,0.144,0.1439,0.1439,0.1441,0.1439,0.1433,0.1429,0.1424,0.1406,0.1406,0.1397,0.1394,0.1391,0.1388,0.1377,0.1373,0.142,0.142,0.142,0,0,0.1452,0.1457,0.1463,0.1449,0.1448,0.1451,0.1443,0.145,0.1447,0.1449,0.1458,0.1458,0.1444,0.1445,0.1455,0.1429,0.1443,0.144,0.1428,0.1424,0.1421,0.142,0.1472,0,0,0,0,0,0.1471,0.1456,0.1462,0.1461,0.1456,0.1448,0.1448,0.1455,0.1464,0.1457,0.146,0.1469,0.1452,0.1461,0.146,0.1448,0.1431,0.1429,0.1427,0.1407,0.1403,0.1399,0,0,0,0,0,0,0.147,0.1469,0.1462,0.1465,0.1464,0.1449,0.1466,0.1468,0.1465,0.1467,0.1468,0.1469,0.1475,0.1463,0.1461,0.1449,0.1472,0.143,0.1428,0.1427,0.1406,0.1402,0.1399,0,0,0,0,0,0.147,0.1469,0.146,0.1465,0.1464,0.147,0.1467,0.1468,0.1466,0.1471,0.1472,0.1472,0.1475,0.1474,0.1462,0.145,0.1473,0.1473,0.1429,0.1428,0.1426,0.1404,0,0,0,0,0,0,0.147,0.147,0.146,0.146,0.1471,0.1471,0.1472,0.1469,0.1471,0.1472,0.1475,0.1477,0.1474,0.1474,0.1473,0.145,0.1474,0.1474,0.1473,0.1428,0.1427,0.1426,0,0,0,0,0,0,0.147,0.147,0.146,0.1467,0.1468,0.1472,0.1472,0.1464,0.1471,0.1475,0.1476,0.1476,0.1475,0.1473,0.1473,0.1459,0.1475,0.1475,0.1474,0.1474,0.1427,0.1426,0,0,0,0,0,0,0.147,0.1469,0.1467,0.1468,0.1469,0.1469,0.1464,0.1459,0.1477,0.1474,0.1479,0.148,0.1475,0.1474,0.1473,0.1459,0.1459,0.1475,0.1475,0.1474,0.1474,0,0,0,0,0,0,0,0.147,0.1473,0.146,0.1469,0.147,0.146,0.146,0.146,0.1477,0.1478,0.1479,0.1479,0.1479,0.1478,0.1477,0.1459,0,0,0.1475,0.1475,0,0,0,0,0,0,0,0,0.1474,0.1473,0.146,0.146,0.146,0.146,0.146,0.146,0.1477,0.1478,0.1479,0.1479,0.1478,0.1478,0.1477,0,0,0,0,0,0,0,0,0,0,0,0,0,0,0,0.146,0.146,0,0.146,0.146,0.146,0.1478,0.1478,0.1479,0.1479,0.1478,0.1478,0.1477,0,0,0,0,0,0,0,0,0,0,0,0,0,0,0,0,0,0,0,0,0,0,0,0,0,0,0,0,0,0,0,0,0,0,0,0,0,0,0,0,0,0,0,0,0,0,0,0,0,0,0,0,0,0,0,0,0,0,0,0,0,0,0,0,0,0,0,0,0]}]]]